Lapse_Rate
4.9 5.2 5.9 6.7 6.4 6.5 6.5 6.5 6.5 6.5 6.5 5.9 5.9 6.0 6.5 5.6 6.5 6.5 6.1 6.5 7.5 6.5 5.7 6.3 6.7 6.2 6.0 6.4 6.6 6.5 5.9 5.9 6.6 6.5 6.5 6.7 6.3 5.9 5.7 5.8 5.7 5.6 5.7 5.9 5.6 5.4 5.5 5.6 5.6
6.3 8.4 7.0 5.3 6.5 6.5 6.5 6.5 6.5 6.5 6.0 5.8 5.9 6.0 6.4 6.5 4.7 4.6 3.6 6.3 7.9 8.3 6.7 6.5 6.7 6.1 5.9 6.1 6.8 6.7 6.1 5.7 5.9 6.4 6.6 6.5 6.2 6.0 5.8 5.4 4.7 5.0 5.2 5.1 4.4 4.6 4.8 5.5 5.0
6.1 8.8 5.7 6.5 6.5 6.5 6.5 6.5 6.5 6.2 6.2 6.9 6.7 6.3 5.9 6.3 5.1 3.0 3.1 5.4 8.0 7.9 7.3 6.8 6.6 6.5 6.0 6.0 6.4 6.7 6.0 5.8 6.0 6.6 6.4 6.1 5.6 5.1 4.9 4.5 4.4 4.3 4.3 4.5 4.5 4.1 4.3 4.2 4.2
7.4 6.9 6.1 6.5 6.5 6.5 6.5 6.5 6.5 6.4 6.6 7.1 7.0 6.5 4.4 4.7 6.7 5.0 3.1 6.1 5.5 6.1 6.4 6.7 6.8 6.5 6.0 6.0 6.3 6.7 6.2 6.0 6.6 6.0 5.3 5.2 4.5 3.9 3.9 3.8 3.9 3.9 3.6 3.8 3.5 3.9 3.8 3.4 3.0
7.0 5.8 6.5 6.5 6.5 6.5 6.5 5.9 5.2 6.5 6.3 5.8 6.4 6.4 5.5 4.3 3.9 3.8 4.8 7.0 4.5 4.8 6.1 6.6 6.7 6.5 6.2 6.2 6.3 6.6 6.5 6.2 6.6 6.2 5.8 5.1 4.1 3.5 3.0 2.8 3.1 3.3 3.2 3.1 2.9 3.0 2.7 2.7 2.6
5.8 5.5 6.5 6.5 6.5 6.5 6.5 5.2 5.0 6.2 5.8 5.9 5.8 5.9 4.5 3.3 3.9 4.0 4.9 6.1 4.7 5.8 6.2 6.7 6.6 6.7 6.3 6.5 6.2 6.6 6.6 6.7 6.5 6.4 5.8 4.4 3.6 2.9 2.3 2.4 2.3 2.2 2.3 2.3 2.4 2.0 1.8 1.9 2.4
6.4 6.5 6.5 6.5 6.5 6.5 6.5 5.3 6.5 6.3 6.0 5.7 5.6 6.5 3.8 3.8 4.9 5.0 5.3 6.4 5.4 4.7 4.9 6.0 6.3 6.1 6.3 6.4 6.2 6.5 6.6 6.3 6.4 5.9 4.4 2.9 2.7 2.4 1.9 1.3 1.0 0.8 0.8 0.7 1.0 1.3 1.2 1.4 2.0
6.1 6.5 6.5 6.5 6.5 6.5 6.2 6.4 6.4 6.0 6.4 6.5 6.0 6.5 6.0 3.9 4.7 5.0 4.8 3.8 4.2 3.8 3.9 4.8 5.3 5.1 5.0 5.5 5.8 6.0 6.1 6.0 4.4 2.1 2.0 2.0 1.8 1.3 0.8 0.6 0.6 0.4 0.3 0.3 0.2 0.2 0.6 0.9 1.6
7.5 6.5 6.5 6.5 6.5 6.5 5.5 6.5 6.0 4.3 5.7 6.6 5.7 4.3 4.7 3.4 4.3 4.4 3.1 2.6 3.7 3.4 3.3 4.1 4.8 4.8 3.9 4.0 4.4 4.2 4.3 2.2 1.5 2.8 3.8 2.2 0.1 -0.9 -0.9 -0.3 -0.2 0.0 0.0 -0.0 0.2 0.7 1.1 1.5 1.9
6.4 6.5 6.5 6.5 6.5 6.5 6.1 6.5 6.3 6.3 6.1 6.1 4.9 3.8 3.3 3.3 4.3 3.3 2.7 2.4 3.7 3.0 3.2 4.0 4.3 4.5 3.9 3.4 2.9 2.8 3.9 4.1 3.4 3.6 3.5 0.8 -0.1 -0.3 -0.9 -0.7 -0.2 -0.2 -0.1 0.4 0.6 0.5 0.6 0.5 0.8
6.2 6.5 6.5 6.4 6.0 6.4 6.3 6.1 6.0 6.4 6.5 5.3 5.3 1.8 1.6 2.7 4.3 4.0 3.7 3.0 4.4 3.7 3.7 3.7 4.0 4.4 3.5 2.3 2.2 2.7 3.0 3.3 3.6 3.5 2.3 1.6 0.3 0.1 -0.3 -0.7 -0.0 0.0 0.5 0.4 0.3 -0.1 -0.2 -0.3 0.2
6.5 6.4 6.5 6.4 6.5 6.1 6.5 6.3 6.0 5.4 5.5 6.3 5.4 3.1 1.4 2.2 2.9 4.3 3.9 3.3 5.0 4.0 3.9 3.7 3.4 3.0 2.5 2.5 2.7 2.6 2.4 3.0 2.7 2.8 3.0 2.2 1.2 0.7 0.3 0.3 0.5 0.3 0.3 0.5 0.7 0.3 0.1 -0.0 0.2
6.5 6.5 6.5 6.0 5.6 5.4 6.1 6.2 6.1 5.6 5.6 6.1 5.9 2.3 1.4 2.3 3.2 4.8 5.4 5.7 4.6 4.4 4.3 4.0 3.9 3.8 3.4 3.9 3.6 3.6 3.4 3.3 2.4 2.1 2.6 2.6 1.3 0.2 0.8 0.4 0.3 0.3 0.5 -0.2 -0.1 0.4 0.4 0.2 0.5
6.3 6.3 6.2 6.1 6.1 6.3 6.3 6.3 5.8 5.7 6.2 6.2 5.9 3.3 2.7 2.7 3.4 5.1 6.3 6.5 4.9 5.0 4.6 4.4 4.4 4.3 4.5 4.1 4.7 4.3 3.6 2.6 2.2 2.0 1.8 2.0 1.7 1.1 0.7 0.2 -0.3 -0.1 0.4 0.7 0.6 0.3 0.2 -0.0 1.0
6.2 6.5 6.5 6.5 6.2 6.4 6.3 6.5 6.5 6.0 6.0 5.8 5.6 4.3 4.8 4.3 4.7 5.2 5.7 6.8 5.6 4.9 5.2 4.8 4.6 4.5 4.8 4.5 4.9 4.0 3.1 2.5 1.4 1.6 1.9 2.0 1.9 1.5 0.9 -0.2 -0.9 0.1 0.8 1.1 1.2 1.3 1.4 0.6 1.1
6.5 6.5 6.5 6.5 6.5 6.3 5.8 6.5 6.5 5.2 5.4 5.1 5.5 5.2 5.3 5.3 5.1 5.5 5.6 5.7 7.0 5.7 5.5 5.5 5.9 5.0 5.0 4.8 4.1 3.7 3.2 2.4 1.9 2.0 1.8 1.9 2.1 2.1 1.1 -0.4 -0.5 0.9 1.1 1.1 0.2 -0.4 -0.3 -0.6 -0.5
6.5 6.5 6.5 6.5 6.5 6.5 6.5 6.5 6.5 5.6 6.0 5.9 5.2 4.8 4.6 4.6 5.1 5.5 5.3 5.3 6.1 6.7 6.3 6.1 5.7 5.4 5.2 4.6 4.3 3.5 3.6 2.6 2.5 2.0 1.6 1.8 2.0 1.9 1.0 0.2 0.6 1.4 0.8 0.5 0.6 -0.5 0.0 0.1 0.8
6.5 6.5 6.5 6.5 6.5 6.5 6.5 6.5 6.5 5.6 5.8 5.2 5.0 4.6 3.8 4.0 4.2 5.2 4.5 4.9 4.9 5.6 5.8 5.8 5.7 5.1 4.7 3.8 3.4 3.2 2.8 3.0 3.2 2.4 2.0 2.1 2.3 2.3 1.6 1.3 1.5 1.7 0.4 -0.4 -0.0 0.3 0.7 0.7 2.5
6.5 6.5 6.5 6.5 6.5 6.5 6.5 6.5 6.5 6.1 5.2 5.3 4.5 4.6 3.1 4.2 4.8 4.9 4.8 4.6 4.6 4.8 5.3 5.5 5.1 5.2 5.0 3.6 3.1 2.4 1.6 1.6 1.8 2.6 3.1 2.9 3.0 3.0 2.4 1.9 2.0 2.0 0.8 1.3 2.1 1.2 0.8 0.7 1.1
6.5 6.5 6.5 6.5 6.5 6.5 6.5 6.5 6.5 6.5 6.5 6.0 6.1 5.6 5.2 3.8 5.6 5.7 4.8 5.0 5.0 5.1 5.6 5.6 6.1 5.8 5.3 4.0 3.1 2.8 2.7 3.0 2.6 3.6 3.8 3.8 3.4 3.4 3.2 2.3 1.6 2.1 1.0 1.3 1.8 2.2 2.3 1.9 1.9
6.5 6.5 6.5 6.5 6.5 6.5 6.5 6.5 6.5 6.5 6.2 6.6 6.5 6.5 6.3 6.0 5.4 6.0 6.1 5.3 5.5 5.2 5.7 6.2 6.3 6.2 5.8 5.2 4.1 4.1 3.6 3.9 2.9 2.8 1.8 3.2 3.9 3.7 3.5 3.2 2.8 2.0 1.5 0.5 1.0 1.4 1.5 2.5 2.4
6.5 6.5 6.5 6.5 6.5 6.5 6.5 6.5 6.5 6.5 6.5 6.5 5.8 5.9 5.8 5.2 5.7 6.0 6.0 5.9 6.0 5.7 5.7 6.5 6.7 6.5 6.6 6.2 5.4 4.6 3.8 3.3 3.1 2.3 2.1 2.6 4.1 3.5 3.7 3.5 3.1 3.0 2.6 1.5 2.0 3.2 2.5 2.2 2.7
6.5 6.5 6.5 6.5 6.5 6.5 6.5 6.5 6.5 6.5 6.5 6.5 6.6 6.1 6.3 5.9 5.7 6.0 6.0 6.2 6.2 5.7 5.4 5.9 6.4 6.4 6.8 6.4 5.9 4.6 4.1 4.0 3.6 2.8 2.6 2.6 3.1 3.6 3.6 3.8 3.5 3.0 2.6 2.6 2.5 1.8 2.4 2.5 2.7
6.5 6.5 6.5 6.5 6.5 6.5 6.5 6.5 6.5 6.5 6.5 6.5 6.1 6.4 6.3 6.3 6.4 6.4 6.6 6.8 6.0 5.4 4.8 5.0 5.8 6.2 6.5 6.2 6.0 5.2 4.8 5.0 4.5 3.7 2.7 2.0 1.7 2.2 3.2 3.5 3.3 3.5 3.3 2.8 2.7 3.0 2.3 2.4 2.7
6.5 6.5 6.5 6.5 6.5 6.5 6.5 6.5 6.5 6.5 6.5 6.5 6.5 5.2 4.8 5.1 6.2 6.6 6.6 6.2 5.8 5.6 5.5 5.2 5.3 5.7 6.0 6.0 5.7 5.9 5.3 4.6 3.8 3.6 3.1 2.8 2.2 2.1 2.7 3.6 3.3 3.0 3.2 3.3 3.3 2.7 2.2 2.1 2.4
6.5 6.5 6.5 6.5 6.5 6.5 6.5 6.5 6.5 6.5 4.9 4.3 3.8 3.7 5.4 5.1 5.9 6.2 6.7 6.3 5.7 5.9 5.8 5.9 5.4 5.7 5.8 6.0 5.8 5.1 5.1 4.3 3.8 3.2 2.7 2.5 2.7 3.0 3.9 3.7 3.5 3.3 3.1 3.2 3.4 3.2 3.1 3.4 3.3
6.5 6.5 6.5 6.5 6.5 6.5 6.5 6.5 6.5 6.5 6.5 5.2 4.3 5.4 5.4 5.9 6.1 6.2 6.3 6.2 6.0 6.1 4.5 4.9 5.6 5.6 5.4 5.8 5.3 4.9 5.0 4.4 3.7 3.4 3.3 2.9 3.6 4.1 4.1 4.2 3.3 3.3 3.4 3.3 3.3 3.1 3.5 3.6 3.7
6.5 6.5 6.5 6.5 6.5 6.5 6.5 6.5 6.5 6.5 6.5 6.5 6.5 4.4 4.5 6.0 6.2 6.3 6.8 6.9 6.5 6.2 6.2 5.1 5.1 4.9 4.1 5.2 4.9 5.1 4.2 4.1 3.8 3.9 3.9 4.1 4.1 4.2 3.8 4.0 3.9 3.5 3.5 3.5 3.4 3.0 3.9 3.9 4.1
6.5 6.5 6.5 6.5 6.5 6.5 6.5 6.5 6.5 6.5 6.5 6.5 6.6 4.9 5.0 5.0 5.9 6.4 6.2 6.5 6.7 6.6 6.3 5.7 5.1 4.9 4.4 4.7 4.2 3.6 3.6 3.8 4.1 4.2 4.9 4.9 5.0 4.7 4.3 3.9 3.9 3.6 3.4 3.6 3.5 4.0 4.1 4.2 4.3
6.5 6.5 6.5 6.5 6.5 6.5 6.5 6.5 6.5 6.5 6.5 5.4 4.6 5.0 6.1 6.3 6.3 6.5 6.8 6.6 6.8 6.6 6.1 6.4 5.7 4.9 4.9 4.6 4.0 3.3 3.1 3.7 3.9 4.0 4.7 5.2 5.2 4.6 4.1 4.3 4.1 4.1 4.0 4.0 3.7 4.0 4.5 4.4 4.5
Wind_Speed
7 10 8 1 2 4 6 8 10 11 1 4 6 7 4 6 3 4 3 3 14 13 14 13 16 16 17 19 19 17 20 19 18 18 19 21 22 24 24 22 22 21 21 21 22 18 14 15 13
10 11 2 3 3 6 7 14 14 8 6 8 7 6 4 4 6 8 4 6 11 14 15 15 18 17 17 17 17 16 19 19 18 18 19 18 21 22 21 22 21 22 23 21 22 20 17 17 14
8 10 2 4 4 11 6 7 5 6 7 3 3 3 6 3 8 9 9 9 11 10 12 14 19 18 18 18 18 18 19 18 18 19 19 19 20 20 20 20 20 19 20 19 20 20 16 16 14
5 1 3 4 13 11 16 12 6 5 4 2 1 2 5 5 3 8 10 9 12 8 5 19 21 18 17 17 17 17 20 20 19 19 19 18 19 18 17 18 19 19 19 18 20 18 17 14 13
3 3 5 7 16 15 16 14 9 7 4 8 4 3 4 3 9 10 9 9 13 7 9 16 21 20 18 17 17 18 19 20 19 19 19 19 19 19 19 19 18 18 18 18 17 16 16 15 16
3 3 5 12 16 17 16 15 14 6 6 3 8 5 5 8 7 9 8 8 9 5 10 13 19 20 20 19 18 19 21 21 21 21 20 20 19 19 19 17 18 18 18 18 17 16 15 15 16
8 5 8 11 15 14 12 8 8 7 6 7 8 5 5 7 7 9 8 8 9 6 6 10 15 18 21 21 19 20 22 23 23 22 22 21 20 19 18 17 17 17 15 16 16 16 15 15 14
3 4 10 14 15 21 12 4 4 7 3 3 6 3 5 10 10 9 10 8 6 5 5 7 14 17 18 19 23 23 23 24 24 22 21 20 19 18 18 17 16 17 17 15 14 15 16 16 15
4 4 10 21 14 20 9 3 5 4 2 2 3 5 8 15 11 10 11 7 4 5 4 7 13 17 21 22 23 24 24 23 20 16 15 16 18 17 16 17 17 16 15 15 14 13 11 12 14
8 7 13 10 12 8 9 0 2 4 5 5 6 7 12 12 11 12 11 10 8 6 4 7 13 17 20 19 18 18 15 14 12 9 10 17 18 16 15 15 13 13 14 13 13 14 13 12 15
10 15 14 15 11 4 7 7 7 4 6 9 8 15 16 11 12 13 10 10 9 9 7 6 10 16 16 15 15 12 14 10 10 11 16 14 12 10 10 7 7 8 11 11 13 12 14 16 15
13 17 17 17 18 13 7 6 9 9 11 8 7 18 16 17 16 15 15 14 14 11 10 10 10 13 15 15 12 13 10 11 10 11 10 10 9 9 10 9 9 11 10 10 9 11 12 14 15
18 19 16 12 9 11 7 12 11 8 14 6 9 16 17 13 13 11 13 14 14 13 11 11 10 10 14 12 13 12 10 9 12 9 8 10 10 8 10 10 12 11 12 13 10 9 10 12 12
8 18 14 13 13 15 11 11 7 10 9 13 11 12 14 14 14 11 12 15 17 14 14 13 11 12 13 8 11 11 11 15 13 10 10 12 12 11 10 10 11 11 11 11 11 10 8 8 11
12 10 9 9 11 11 4 10 11 17 11 10 9 10 11 12 12 14 12 14 18 15 15 14 12 15 9 8 11 12 14 14 12 12 10 10 11 12 11 11 10 8 7 8 8 8 8 8 10
5 6 8 8 19 13 11 9 10 12 10 10 7 8 10 10 12 9 12 10 16 17 16 15 12 11 10 7 11 12 15 15 14 12 12 12 11 12 12 10 8 9 9 10 9 6 3 4 5
9 7 13 14 14 6 8 4 7 5 5 5 7 8 8 8 8 8 11 9 12 16 18 15 13 12 10 10 11 13 14 13 14 15 14 12 11 14 15 12 9 11 10 9 6 5 4 3 3
8 14 14 12 6 7 8 9 9 7 5 7 7 7 9 11 11 9 10 10 9 11 13 11 9 9 9 6 8 8 8 10 15 14 14 12 12 14 15 12 9 9 8 5 5 5 5 3 3
14 15 15 11 3 6 9 9 9 10 8 9 7 10 10 9 9 8 9 9 9 9 12 12 11 8 7 4 5 5 5 4 4 13 15 14 13 13 14 12 11 13 4 4 5 3 5 5 5
16 15 16 9 10 3 6 10 9 9 1 8 10 10 9 7 7 10 9 7 8 9 12 11 11 9 7 5 4 4 5 4 6 12 14 14 12 13 12 12 9 10 4 5 5 5 2 3 4
10 9 7 8 5 3 3 8 14 4 12 12 12 9 9 8 6 10 8 8 8 8 10 11 10 10 7 7 5 5 5 6 4 4 4 11 11 14 14 14 12 10 9 4 5 5 6 3 3
7 6 4 4 3 2 3 5 3 7 11 12 9 8 8 10 9 7 8 7 7 7 8 10 10 9 7 7 5 9 6 6 3 4 3 9 13 13 13 13 14 11 11 5 4 7 5 4 3
3 5 5 4 2 5 4 3 5 14 6 5 5 7 7 7 8 7 7 7 7 7 7 8 10 8 7 7 7 6 6 4 4 5 7 6 11 13 12 13 13 11 11 10 8 5 6 4 4
3 0 3 2 3 3 8 10 3 3 2 3 6 6 6 6 6 7 6 7 6 6 7 7 10 7 7 7 7 8 8 9 7 7 5 4 4 7 11 11 12 12 11 8 8 8 7 4 4
3 3 1 1 0 5 4 5 1 4 3 5 5 4 4 4 6 6 6 6 6 7 7 7 8 7 7 7 7 7 8 8 8 7 5 6 4 3 4 9 8 9 11 11 9 7 6 4 3
6 1 3 4 4 2 4 4 3 2 3 3 4 3 6 4 5 6 5 5 6 6 6 7 8 7 8 6 7 6 9 6 5 6 5 4 4 4 9 9 10 11 10 8 7 5 4 5 3
1 2 2 2 4 1 4 3 4 3 3 4 4 8 7 6 5 6 6 6 6 5 4 6 7 6 7 7 6 7 7 8 7 7 6 4 6 7 8 8 9 10 8 7 6 3 3 3 2
2 4 1 1 2 4 4 2 4 4 4 3 4 5 4 6 6 5 5 6 6 7 5 5 6 8 5 6 7 7 7 8 7 6 7 6 6 9 8 7 7 7 7 5 4 2 2 2 1
1 2 0 2 3 3 1 4 4 6 6 8 4 4 6 5 4 6 6 5 5 6 7 5 7 7 7 7 6 8 8 8 8 7 7 6 8 8 6 6 6 5 4 5 3 1 2 1 2
2 2 2 3 3 2 1 4 3 7 6 4 3 4 5 6 7 6 6 7 9 7 7 7 6 8 8 9 9 7 6 8 8 8 7 11 6 9 7 6 5 4 4 5 3 1 1 2 3
Wind_Direction
220 238 237 135 225 224 251 238 243 266 125 16 36 35 337 15 338 174 94 37 132 134 136 148 125 118 117 111 107 106 97 94 94 95 90 85 81 78 76 77 81 88 89 92 87 75 97 83 74
230 219 256 260 229 237 240 231 241 252 90 65 47 357 351 68 92 117 84 242 137 136 150 133 126 122 117 118 120 116 104 100 96 91 88 87 85 81 81 77 75 73 72 76 79 74 59 69 66
252 237 241 207 217 234 246 267 66 85 75 89 114 64 335 90 103 150 128 183 123 123 129 144 132 124 125 123 122 118 111 108 104 99 94 89 85 83 82 79 78 80 82 79 78 81 74 66 62
218 216 287 255 249 242 234 262 116 94 67 54 216 253 78 354 104 121 140 160 109 109 150 149 138 127 124 124 123 122 115 111 103 100 98 94 91 86 82 83 81 81 78 79 79 78 77 77 68
232 249 230 230 247 262 280 286 161 168 179 155 207 226 95 60 82 118 151 122 118 141 161 149 142 135 129 125 124 121 117 112 107 100 97 95 92 90 88 83 80 79 77 75 76 78 75 72 64
214 241 223 229 247 247 243 240 255 184 202 214 160 277 113 112 118 126 120 123 118 127 134 141 147 140 134 127 124 122 117 114 108 102 99 93 89 86 82 82 83 78 74 72 69 69 70 65 66
236 228 240 255 260 271 277 314 322 177 218 222 166 197 108 146 143 119 116 95 93 73 84 125 129 135 129 123 119 118 111 111 107 102 99 95 92 91 88 82 76 75 77 70 70 69 66 68 65
227 249 260 249 249 262 267 352 37 28 349 21 167 227 169 164 139 123 102 81 73 57 67 99 111 112 104 105 105 104 102 106 106 103 101 100 95 92 90 88 90 84 79 77 71 67 68 68 67
237 246 231 237 238 261 259 183 101 129 29 56 85 68 107 128 137 123 118 107 109 76 59 96 114 108 104 100 99 95 93 93 97 102 107 104 95 84 80 85 84 85 81 76 70 69 73 71 66
208 224 241 260 258 278 324 234 220 149 182 222 120 108 122 136 156 151 155 155 155 134 106 116 122 120 113 112 103 104 109 110 123 142 96 75 87 98 100 95 88 83 74 69 64 63 57 51 56
212 236 235 254 279 336 311 305 292 228 245 244 205 163 155 162 175 167 169 167 161 146 139 114 124 127 117 114 110 101 100 96 97 89 102 117 125 138 128 129 100 88 70 66 65 66 59 51 55
240 224 236 258 276 291 271 284 260 256 234 226 304 150 162 173 181 181 174 165 158 155 147 130 128 119 116 117 117 122 123 122 105 105 121 109 100 90 76 73 65 57 61 73 77 71 67 65 53
229 238 251 256 251 247 275 267 247 271 268 250 246 139 166 179 182 184 172 165 155 155 155 146 138 131 131 131 132 136 129 119 113 98 90 108 104 98 94 83 71 61 53 49 45 68 78 75 68
238 230 256 245 258 265 242 253 253 247 255 253 244 161 170 176 181 176 176 169 163 160 159 151 147 136 139 129 135 128 122 121 116 110 87 89 97 97 96 92 84 67 65 69 60 52 56 76 85
291 279 293 245 256 257 266 259 245 252 239 265 267 166 168 180 173 183 180 173 164 163 158 156 148 142 140 132 123 119 123 122 114 116 109 96 95 96 90 86 77 73 67 75 79 71 74 62 67
289 279 259 232 233 236 171 250 280 254 215 234 237 162 178 187 181 169 168 165 162 160 161 157 151 146 136 135 124 124 125 124 122 116 103 93 93 93 90 83 75 72 69 66 48 37 65 75 80
231 249 234 247 239 129 170 221 275 102 139 229 189 200 188 173 157 159 156 154 157 155 159 157 151 150 136 121 116 123 128 119 118 110 104 97 89 90 86 80 68 69 61 52 70 36 46 67 75
214 233 236 241 181 171 188 243 270 257 209 215 232 232 182 168 171 153 138 134 133 144 144 142 136 133 126 120 115 109 109 114 121 117 113 106 95 94 97 89 70 69 64 42 52 78 44 54 38
267 279 281 292 163 154 211 234 240 248 255 249 236 34 45 25 136 125 122 125 129 132 139 146 140 140 131 124 132 128 136 134 123 121 132 126 121 115 106 103 87 76 71 60 42 41 79 28 18
263 261 253 275 275 179 233 258 257 254 330 62 59 47 35 20 79 122 116 120 139 136 143 146 150 141 139 141 141 131 132 121 112 123 123 125 118 120 116 109 108 110 96 75 58 53 76 59 33
253 260 271 251 354 235 260 281 246 47 92 64 52 47 29 17 4 127 127 128 130 135 147 149 148 145 147 151 142 124 111 95 101 105 103 114 108 92 96 101 94 81 92 81 65 52 51 100 31
242 5 30 50 56 229 62 280 340 135 83 54 39 39 22 9 29 70 105 117 132 135 130 139 142 144 151 151 136 140 137 135 135 126 120 115 117 104 103 99 93 85 82 77 71 51 44 48 72
96 28 45 39 310 324 215 245 249 134 76 43 54 52 38 27 33 51 88 108 113 121 130 131 132 137 147 140 136 132 127 127 130 115 119 116 113 113 107 102 99 90 87 82 75 61 52 45 60
100 239 173 129 172 250 196 195 279 76 134 100 81 69 54 49 57 57 67 91 98 98 108 116 131 141 137 132 137 140 146 135 127 131 125 122 112 112 108 104 101 96 99 93 88 81 70 58 66
189 193 222 250 190 239 15 190 175 118 76 124 114 69 81 17 92 87 87 95 108 118 119 121 130 139 131 136 150 159 132 125 125 131 127 125 117 113 114 107 102 94 88 81 76 75 73 60 61
191 198 198 239 179 190 342 237 234 102 102 106 132 177 113 78 87 103 120 117 105 116 129 130 141 142 140 148 160 126 119 124 124 122 120 120 121 120 121 108 99 88 86 80 74 75 82 76 63
126 202 54 320 212 3 205 87 25 132 97 80 89 96 93 111 116 128 128 132 135 135 127 139 142 137 145 153 125 110 108 116 121 121 119 120 116 123 129 129 112 109 105 100 90 72 88 79 53
23 337 109 277 219 232 268 197 178 170 168 138 107 123 112 136 144 138 131 140 144 152 141 86 142 143 138 131 123 119 111 110 113 114 118 111 119 121 135 131 127 129 126 122 113 100 100 84 61
118 198 303 93 138 200 306 283 331 190 163 139 128 126 135 142 108 149 138 123 106 126 142 126 122 114 104 110 109 120 128 130 125 126 125 128 122 128 134 143 135 143 153 146 144 229 112 111 321
68 335 80 149 293 66 184 275 6 84 107 107 110 60 81 96 110 111 131 147 156 157 140 142 128 124 137 132 130 126 123 133 133 127 130 132 141 145 147 159 159 163 167 164 155 206 242 243 258